Time,TemperatureF,DewpointF,PressureIn,WindDirection,WindDirectionDegrees,WindSpeedMPH,WindSpeedGustMPH,Humidity,HourlyPrecipIn,Conditions,Clouds,dailyrainin,SoftwareType,DateUTC
2014-11-28 00:00:00,43.0,28.8,30.13,SW,225,0.0,-999.0,57,-99.99,,,0.00,Acu-Link.com,2014-11-28 06:00:00,
2014-11-28 00:15:00,41.5,28.7,30.12,SW,225,0.0,-999.0,60,-99.99,,,0.00,Acu-Link.com,2014-11-28 06:15:00,
2014-11-28 00:30:00,40.3,28.7,30.12,SW,225,0.0,-999.0,63,-99.99,,,0.00,Acu-Link.com,2014-11-28 06:30:00,
2014-11-28 00:45:00,39.7,29.0,30.12,NE,45,1.6,-999.0,65,-99.99,,,0.00,Acu-Link.com,2014-11-28 06:45:00,
2014-11-28 01:00:00,39.7,29.3,30.11,NW,315,0.0,-999.0,66,-99.99,,,0.00,Acu-Link.com,2014-11-28 07:00:00,
2014-11-28 01:15:00,39.7,29.7,30.10,SW,225,1.1,-999.0,67,-99.99,,,0.00,Acu-Link.com,2014-11-28 07:15:00,
2014-11-28 01:31:00,39.4,30.1,30.09,NE,45,0.0,-999.0,69,-99.99,,,0.00,Acu-Link.com,2014-11-28 07:31:00,
2014-11-28 01:46:00,39.7,30.4,30.09,SW,225,1.1,-999.0,69,-99.99,,,0.00,Acu-Link.com,2014-11-28 07:46:00,
2014-11-28 02:01:00,39.7,31.1,30.09,WNW,292,1.6,-999.0,71,-99.99,,,0.00,Acu-Link.com,2014-11-28 08:01:00,
2014-11-28 02:16:00,40.3,32.0,30.09,SSE,157,2.7,-999.0,72,-99.99,,,0.00,Acu-Link.com,2014-11-28 08:16:00,
2014-11-28 02:31:00,39.6,32.0,30.09,NE,45,1.1,-999.0,74,-99.99,,,0.00,Acu-Link.com,2014-11-28 08:31:00,
2014-11-28 02:47:00,39.0,32.1,30.09,ESE,112,1.6,-999.0,76,-99.99,,,0.00,Acu-Link.com,2014-11-28 08:47:00,
2014-11-28 03:02:00,39.0,32.1,30.09,ESE,112,0.0,-999.0,76,-99.99,,,0.00,Acu-Link.com,2014-11-28 09:02:00,
2014-11-28 03:17:00,37.9,31.7,30.09,SSE,157,0.0,-999.0,78,-99.99,,,0.00,Acu-Link.com,2014-11-28 09:17:00,
2014-11-28 03:32:00,38.1,32.5,30.08,East,90,3.8,-999.0,80,-99.99,,,0.00,Acu-Link.com,2014-11-28 09:32:00,
2014-11-28 03:47:00,38.7,32.7,30.08,ESE,112,1.1,-999.0,79,-99.99,,,0.00,Acu-Link.com,2014-11-28 09:47:00,
2014-11-28 04:02:00,38.3,32.4,30.07,South,180,1.6,-999.0,79,-99.99,,,0.00,Acu-Link.com,2014-11-28 10:02:00,
2014-11-28 04:18:00,38.3,32.4,30.07,SE,135,1.1,-999.0,79,-99.99,,,0.00,Acu-Link.com,2014-11-28 10:18:00,
2014-11-28 04:33:00,38.8,32.9,30.06,SE,135,0.0,-999.0,79,-99.99,,,0.00,Acu-Link.com,2014-11-28 10:33:00,
2014-11-28 04:48:00,38.7,32.7,30.06,SSE,157,1.6,-999.0,79,-99.99,,,0.00,Acu-Link.com,2014-11-28 10:48:00,
2014-11-28 05:03:00,39.2,33.2,30.05,ESE,112,2.7,-999.0,79,-99.99,,,0.00,Acu-Link.com,2014-11-28 11:03:00,
2014-11-28 05:18:00,39.6,33.3,30.05,South,180,2.2,-999.0,78,-99.99,,,0.00,Acu-Link.com,2014-11-28 11:18:00,
2014-11-28 05:33:00,39.2,32.9,30.05,SW,225,2.2,-999.0,78,-99.99,,,0.00,Acu-Link.com,2014-11-28 11:33:00,
2014-11-28 05:48:00,38.8,32.9,30.05,West,270,2.2,-999.0,79,-99.99,,,0.00,Acu-Link.com,2014-11-28 11:48:00,
2014-11-28 06:03:00,38.8,33.2,30.04,West,270,2.7,-999.0,80,-99.99,,,0.00,Acu-Link.com,2014-11-28 12:03:00,
2014-11-28 06:18:00,39.6,33.9,30.05,ENE,67,3.8,-999.0,80,-99.99,,,0.00,Acu-Link.com,2014-11-28 12:18:00,
2014-11-28 06:33:00,39.4,33.7,30.04,SE,135,3.1,-999.0,80,-99.99,,,0.00,Acu-Link.com,2014-11-28 12:33:00,
2014-11-28 06:48:00,39.0,33.7,30.04,ENE,67,1.6,-999.0,81,-99.99,,,0.00,Acu-Link.com,2014-11-28 12:48:00,
2014-11-28 07:04:00,39.2,33.9,30.04,NE,45,2.7,-999.0,81,-99.99,,,0.00,Acu-Link.com,2014-11-28 13:04:00,
2014-11-28 07:19:00,39.9,34.3,30.04,South,180,3.8,-999.0,80,-99.99,,,0.00,Acu-Link.com,2014-11-28 13:19:00,
2014-11-28 07:34:00,41.4,34.4,30.03,South,180,3.8,-999.0,76,-99.99,,,0.00,Acu-Link.com,2014-11-28 13:34:00,
2014-11-28 07:49:00,43.0,34.9,30.03,ESE,112,6.3,-999.0,73,-99.99,,,0.00,Acu-Link.com,2014-11-28 13:49:00,
2014-11-28 08:04:00,43.9,35.1,30.03,SSW,202,5.1,-999.0,71,-99.99,,,0.00,Acu-Link.com,2014-11-28 14:04:00,
2014-11-28 08:19:00,45.5,35.2,30.03,ENE,67,3.1,-999.0,67,-99.99,,,0.00,Acu-Link.com,2014-11-28 14:19:00,
2014-11-28 08:34:00,46.6,35.8,30.03,North,0,4.7,-999.0,66,-99.99,,,0.00,Acu-Link.com,2014-11-28 14:34:00,
2014-11-28 08:49:00,47.3,36.1,30.04,East,90,3.8,-999.0,65,-99.99,,,0.00,Acu-Link.com,2014-11-28 14:49:00,
2014-11-28 09:04:00,48.7,37.1,30.04,West,270,4.3,-999.0,64,-99.99,,,0.00,Acu-Link.com,2014-11-28 15:04:00,
2014-11-28 09:20:00,50.5,37.6,30.04,West,270,3.8,-999.0,61,-99.99,,,0.00,Acu-Link.com,2014-11-28 15:20:00,
2014-11-28 09:35:00,52.2,37.8,30.04,NW,315,9.4,-999.0,58,-99.99,,,0.00,Acu-Link.com,2014-11-28 15:35:00,
2014-11-28 09:50:00,53.2,38.8,30.03,ESE,112,4.3,-999.0,58,-99.99,,,0.00,Acu-Link.com,2014-11-28 15:50:00,
2014-11-28 10:05:00,54.9,40.4,30.03,WSW,247,4.3,-999.0,58,-99.99,,,0.00,Acu-Link.com,2014-11-28 16:05:00,
2014-11-28 10:20:00,55.2,40.7,30.03,SW,225,4.3,-999.0,58,-99.99,,,0.00,Acu-Link.com,2014-11-28 16:20:00,
2014-11-28 10:35:00,56.1,41.5,30.02,South,180,3.1,-999.0,58,-99.99,,,0.00,Acu-Link.com,2014-11-28 16:35:00,
2014-11-28 10:50:00,58.3,43.1,30.00,ENE,67,7.8,-999.0,57,-99.99,,,0.00,Acu-Link.com,2014-11-28 16:50:00,
2014-11-28 11:05:00,59.7,44.9,30.00,SE,135,4.3,-999.0,58,-99.99,,,0.00,Acu-Link.com,2014-11-28 17:05:00,
2014-11-28 11:20:00,61.2,45.8,29.98,West,270,3.1,-999.0,57,-99.99,,,0.00,Acu-Link.com,2014-11-28 17:20:00,
2014-11-28 11:36:00,62.6,46.7,29.97,NNW,337,8.3,-999.0,56,-99.99,,,0.00,Acu-Link.com,2014-11-28 17:36:00,
2014-11-28 11:51:00,64.4,48.4,29.95,West,270,4.3,-999.0,56,-99.99,,,0.00,Acu-Link.com,2014-11-28 17:51:00,
2014-11-28 12:06:00,65.3,50.1,29.93,NE,45,11.4,-999.0,58,-99.99,,,0.00,Acu-Link.com,2014-11-28 18:06:00,
2014-11-28 12:21:00,66.2,51.4,29.93,West,270,11.0,-999.0,59,-99.99,,,0.00,Acu-Link.com,2014-11-28 18:21:00,